{"data":{"norad_id":68526,"epoch":"2026-09-19T02:41:27.682080Z","epoch_age_seconds":167662,"freshness":"FRESH","line1":"1 68526U 26068U   26262.11212595  .00022208  00000+0  66639-3 0  9999","line2":"2 68526  53.1577 300.5367 0001711  88.8755 271.2444 15.34403823 26692","mean_motion":15.34403823,"eccentricity":0.0001711,"inclination_deg":53.1577,"raan_deg":300.5367,"arg_perigee_deg":88.8755,"mean_anomaly_deg":271.2444,"bstar":0.00066639,"rev_number":2669,"period_min":93.847524257635,"perigee_km":461.5214116481,"apogee_km":463.86234328997,"semimajor_km":6840.828877469,"source":"CELESTRAK","updated_at":"2026-09-20T09:00:43.906132Z"}}